Location: Ferchesar
(52.6477°N, 12.4298°E)
Time: 21:26:53
(UTC+01:00)

TIGRISAT - Pass Details

Date: 24 October 2021
Orbit: 603 x 689 km, 97.7° (Epoch: 30 November)

Event Time Altitude Azimuth Distance (km) Brightness Sun altitude
Rises 06:31:13 0° 145° (SE) 3,051 ? -12.9°
Reaches altitude 10° 06:33:32 10° 139° (SE) 2,136 ? -12.5°
Maximum altitude 06:37:59 44° 68° (ENE) 942 ? -11.9°
Drops below altitude 10° 06:42:23 10° 357° (N) 2,122 ? -11.2°
Sets 06:44:41 0° 351° (N) 3,029 ? -10.9°
